Location: The Saddle
(36.8333°N, 80.3417°W)
Time: 06:33:31
(UTC-04:00)

Courier 1B - Pass Details

Date: 25 September 2024
Orbit: 962 x 1208 km, 28.3° (Epoch: 05 October)

Event Time Altitude Azimuth Distance (km) Brightness Sun altitude
Rises 13:02:12 0° 253° (WSW) 3,650 10.6 51.8°
Reaches altitude 10° 13:04:57 10° 247° (WSW) 2,721 10.2 51.9°
Maximum altitude 13:11:03 41° 179° (S) 1,422 10.7 51.9°
Drops below altitude 10° 13:17:27 10° 111° (ESE) 2,856 10.2 51.9°
Sets 13:20:24 0° 105° (ESE) 3,851 10.7 51.9°
